Total_Precipitation_Accumulation
0.02 0.05 0.09 0.10 0.07 0.05 0.03 0.03 0.02 0.02 0.03 0.03 0.02 0.02 0.02 0.04 0.06 0.07 0.08 0.08 0.08 0.06 0.05 0.05 0.05 0.04 0.03 0.02 0.02 0.04 0.04 0.03 0.03 0.03 0.04 0.04 0.03 0.02 0.02 0.06 0.09 0.07 0.03
0.04 0.06 0.08 0.09 0.07 0.05 0.04 0.03 0.02 0.01 0.02 0.02 0.01 0.01 0.01 0.02 0.04 0.05 0.06 0.08 0.09 0.08 0.06 0.07 0.07 0.06 0.05 0.07 0.09 0.08 0.06 0.05 0.04 0.04 0.05 0.04 0.02 0.01 0.01 0.04 0.08 0.08 0.01
0.03 0.04 0.05 0.07 0.06 0.05 0.04 0.03 0.02 0.01 0.02 0.02 0.01 0.01 0.01 0.01 0.03 0.05 0.06 0.06 0.07 0.08 0.09 0.09 0.10 0.12 0.10 0.11 0.14 0.11 0.10 0.08 0.05 0.03 0.03 0.08 0.10 0.02 0.00 0.01 0.02 0.01 0.00
0.01 0.03 0.03 0.05 0.06 0.05 0.04 0.04 0.03 0.02 0.02 0.02 0.02 0.01 0.02 0.02 0.01 0.01 0.03 0.05 0.09 0.12 0.16 0.14 0.14 0.17 0.14 0.12 0.14 0.13 0.14 0.12 0.06 0.02 0.01 0.06 0.18 0.10 0.03 0.01 0.00 0.00 0.00
0.01 0.01 0.02 0.04 0.05 0.05 0.05 0.04 0.04 0.03 0.03 0.04 0.03 0.03 0.03 0.03 0.03 0.02 0.01 0.03 0.10 0.15 0.18 0.20 0.19 0.19 0.18 0.17 0.16 0.16 0.18 0.17 0.08 0.02 0.00 0.02 0.14 0.18 0.08 0.02 0.00 0.00 0.00
0.00 0.01 0.02 0.05 0.06 0.06 0.06 0.05 0.04 0.03 0.04 0.04 0.04 0.04 0.05 0.06 0.04 0.03 0.03 0.03 0.04 0.10 0.16 0.20 0.22 0.25 0.25 0.19 0.17 0.21 0.25 0.23 0.08 0.01 0.01 0.02 0.12 0.22 0.14 0.05 0.02 0.01 0.00
0.00 0.02 0.04 0.06 0.05 0.05 0.05 0.05 0.05 0.05 0.04 0.04 0.05 0.05 0.06 0.07 0.07 0.06 0.06 0.05 0.04 0.05 0.09 0.14 0.18 0.23 0.26 0.23 0.22 0.26 0.33 0.23 0.06 0.06 0.04 0.03 0.10 0.34 0.39 0.20 0.07 0.02 0.00
0.00 0.02 0.04 0.04 0.03 0.04 0.05 0.06 0.06 0.07 0.07 0.06 0.07 0.06 0.06 0.06 0.07 0.09 0.09 0.08 0.07 0.06 0.07 0.10 0.14 0.20 0.24 0.26 0.26 0.30 0.34 0.19 0.06 0.09 0.09 0.08 0.18 0.48 0.53 0.45 0.25 0.07 0.01
0.00 0.00 0.01 0.01 0.01 0.02 0.04 0.06 0.06 0.06 0.06 0.06 0.06 0.05 0.04 0.05 0.08 0.11 0.10 0.08 0.08 0.08 0.08 0.07 0.07 0.09 0.15 0.24 0.27 0.25 0.24 0.15 0.08 0.15 0.14 0.18 0.20 0.49 0.55 0.57 0.41 0.19 0.05
0.00 0.00 0.00 0.00 0.00 0.00 0.02 0.05 0.05 0.05 0.04 0.04 0.04 0.04 0.05 0.05 0.06 0.08 0.08 0.07 0.07 0.08 0.08 0.07 0.06 0.06 0.07 0.10 0.13 0.13 0.11 0.08 0.08 0.16 0.27 0.23 0.20 0.49 0.56 0.56 0.42 0.28 0.16
0.00 0.00 0.00 0.00 0.00 0.00 0.01 0.04 0.05 0.05 0.04 0.03 0.03 0.03 0.04 0.03 0.02 0.03 0.03 0.05 0.06 0.06 0.06 0.07 0.08 0.07 0.06 0.03 0.03 0.04 0.03 0.02 0.06 0.17 0.22 0.22 0.30 0.54 0.52 0.50 0.43 0.32 0.26
0.00 0.00 0.00 0.00 0.00 0.00 0.01 0.03 0.04 0.05 0.04 0.04 0.05 0.06 0.06 0.05 0.04 0.04 0.04 0.06 0.07 0.07 0.07 0.09 0.10 0.08 0.06 0.04 0.06 0.09 0.02 0.00 0.01 0.04 0.07 0.11 0.30 0.54 0.54 0.44 0.42 0.36 0.33
0.00 0.00 0.00 0.00 0.00 0.00 0.00 0.02 0.02 0.02 0.04 0.07 0.08 0.10 0.10 0.08 0.10 0.11 0.11 0.11 0.09 0.08 0.11 0.13 0.14 0.15 0.17 0.17 0.18 0.16 0.09 0.05 0.02 0.01 0.02 0.05 0.11 0.22 0.40 0.46 0.45 0.41 0.39
0.00 0.00 0.00 0.00 0.00 0.00 0.00 0.01 0.01 0.02 0.03 0.04 0.06 0.07 0.07 0.07 0.10 0.13 0.13 0.12 0.09 0.10 0.12 0.15 0.15 0.15 0.15 0.14 0.16 0.14 0.12 0.10 0.07 0.05 0.02 0.02 0.03 0.04 0.14 0.29 0.38 0.40 0.39
0.00 0.00 0.00 0.00 0.00 0.00 0.00 0.00 0.00 0.01 0.01 0.02 0.03 0.03 0.03 0.05 0.04 0.04 0.03 0.03 0.04 0.06 0.06 0.05 0.05 0.06 0.08 0.09 0.10 0.11 0.13 0.13 0.12 0.09 0.06 0.03 0.01 0.01 0.04 0.12 0.24 0.34 0.38
0.00 0.00 0.00 0.00 0.00 0.00 0.00 0.00 0.00 0.00 0.00 0.00 0.00 0.00 0.01 0.02 0.01 0.01 0.01 0.02 0.02 0.02 0.02 0.01 0.01 0.01 0.01 0.03 0.04 0.06 0.09 0.09 0.10 0.10 0.09 0.07 0.03 0.01 0.03 0.07 0.13 0.27 0.35
0.00 0.00 0.00 0.00 0.00 0.00 0.00 0.00 0.00 0.00 0.00 0.00 0.00 0.00 0.00 0.00 0.00 0.00 0.01 0.01 0.01 0.01 0.01 0.00 0.00 0.00 0.00 0.00 0.01 0.01 0.02 0.04 0.06 0.06 0.07 0.09 0.07 0.03 0.02 0.05 0.06 0.15 0.27
0.00 0.00 0.00 0.00 0.00 0.00 0.00 0.00 0.00 0.00 0.00 0.00 0.00 0.00 0.00 0.00 0.00 0.00 0.00 0.00 0.00 0.00 0.00 0.00 0.00 0.00 0.00 0.00 0.00 0.00 0.00 0.01 0.02 0.02 0.03 0.05 0.09 0.07 0.04 0.04 0.06 0.08 0.19
0.00 0.00 0.00 0.00 0.00 0.00 0.00 0.00 0.00 0.00 0.00 0.00 0.00 0.00 0.00 0.00 0.00 0.00 0.00 0.00 0.00 0.00 0.00 0.00 0.00 0.00 0.00 0.00 0.00 0.00 0.00 0.00 0.01 0.02 0.02 0.03 0.03 0.05 0.06 0.05 0.06 0.07 0.13
0.00 0.00 0.00 0.00 0.00 0.00 0.00 0.00 0.00 0.00 0.00 0.00 0.00 0.00 0.00 0.00 0.00 0.00 0.00 0.00 0.00 0.00 0.00 0.00 0.00 0.00 0.00 0.00 0.00 0.00 0.00 0.00 0.00 0.01 0.02 0.03 0.03 0.03 0.03 0.05 0.06 0.05 0.06
0.00 0.00 0.00 0.00 0.00 0.00 0.00 0.00 0.00 0.00 0.00 0.00 0.00 0.00 0.00 0.00 0.00 0.00 0.00 0.00 0.00 0.00 0.00 0.00 0.00 0.00 0.01 0.01 0.01 0.00 0.00 0.00 0.00 0.00 0.00 0.01 0.02 0.02 0.03 0.04 0.06 0.05 0.04
0.00 0.00 0.00 0.00 0.00 0.00 0.00 0.00 0.00 0.00 0.00 0.00 0.00 0.00 0.00 0.00 0.00 0.00 0.00 0.00 0.00 0.00 0.00 0.00 0.01 0.01 0.01 0.02 0.03 0.02 0.01 0.00 0.00 0.00 0.00 0.00 0.00 0.01 0.03 0.04 0.04 0.05 0.06
0.00 0.00 0.00 0.00 0.00 0.00 0.00 0.00 0.00 0.00 0.00 0.00 0.00 0.00 0.00 0.00 0.00 0.00 0.00 0.00 0.00 0.00 0.01 0.01 0.02 0.02 0.03 0.02 0.04 0.06 0.04 0.01 0.00 0.00 0.00 0.00 0.00 0.00 0.01 0.03 0.06 0.06 0.08
0.00 0.00 0.00 0.00 0.00 0.00 0.00 0.00 0.00 0.00 0.00 0.00 0.00 0.00 0.00 0.00 0.00 0.00 0.00 0.00 0.00 0.00 0.01 0.02 0.03 0.03 0.04 0.04 0.04 0.05 0.05 0.04 0.04 0.01 0.00 0.01 0.01 0.01 0.01 0.01 0.04 0.06 0.08
0.00 0.00 0.00 0.00 0.00 0.00 0.00 0.00 0.00 0.00 0.00 0.00 0.00 0.00 0.00 0.00 0.00 0.00 0.00 0.00 0.00 0.00 0.02 0.03 0.04 0.05 0.07 0.07 0.06 0.06 0.05 0.04 0.04 0.04 0.02 0.01 0.02 0.03 0.02 0.02 0.03 0.05 0.07
0.00 0.00 0.00 0.00 0.00 0.00 0.00 0.00 0.00 0.00 0.00 0.00 0.00 0.00 0.00 0.00 0.00 0.00 0.00 0.00 0.00 0.00 0.01 0.03 0.05 0.06 0.08 0.08 0.08 0.07 0.06 0.05 0.04 0.06 0.05 0.03 0.02 0.02 0.03 0.03 0.03 0.05 0.08